G4GJR Weather Reports


Display with metric or nautical units.
time (UTC)temp
F
wind
direction
speed
MPH
gust
MPH
rain 1hr
in
rain 24hr
in
rain mn
in
humidity
%
barometer
mb
20260510173004 54 63 5.0 14.0 0.00 0.00 0.00 52 1016.1
20260510171504 54 71 3.0 10.0 0.00 0.00 0.00 52 1016.2
20260510170004 54 25 6.0 16.0 0.00 0.00 0.00 50 1016.4
20260510164504 55 57 5.0 14.0 0.00 0.00 0.00 52 1016.6
20260510161504 55 4 4.0 12.0 0.00 0.00 0.00 53 1016.8
20260510160004 56 58 5.0 12.0 0.00 0.00 0.00 51 1016.8
20260510154504 56 2 6.0 12.0 0.00 0.00 0.00 53 1016.8
20260510153004 56 25 3.0 10.0 0.00 0.00 0.00 54 1017.0
20260510151504 56 4 5.0 14.0 0.00 0.00 0.00 53 1017.1
20260510150003 56 12 5.0 15.0 0.00 0.00 0.00 52 1017.3
20260510144504 56 1 3.0 12.0 0.00 0.00 0.00 56 1017.3
20260510143004 56 24 5.0 13.0 0.00 0.00 0.00 55 1017.4
20260510141504 56 79 5.0 14.0 0.00 0.00 0.00 55 1017.5
20260510140005 56 24 5.0 13.0 0.00 0.00 0.00 56 1017.6
20260510134504 55 301 2.0 14.0 0.00 0.00 0.00 58 1017.5
20260510133004 55 64 4.0 9.0 0.00 0.00 0.00 57 1017.8
20260510131503 55 9 4.0 15.0 0.00 0.00 0.00 60 1017.8
20260510130004 56 353 5.0 14.0 0.00 0.00 0.00 59 1017.9
20260510124503 55 298 4.0 15.0 0.00 0.00 0.00 60 1018.1
20260510123003 54 26 5.0 12.0 0.00 0.00 0.00 62 1018.3
20260510121504 53 335 3.0 16.0 0.00 0.00 0.00 65 1018.5
20260510120004 53 359 5.0 15.0 0.00 0.00 0.00 66 1018.7
20260510114505 53 39 4.0 14.0 0.00 0.00 0.00 66 1018.8
20260510113004 53 59 4.0 18.0 0.00 0.00 0.00 67 1018.8
20260510111504 53 3 6.0 14.0 0.00 0.00 0.00 68 1019.0
20260510104504 52 12 6.0 14.0 0.00 0.00 0.00 71 1019.3
20260510103003 52 12 7.0 18.0 0.00 0.00 0.00 74 1019.3
20260510100004 52 4 5.0 15.0 0.00 0.00 0.00 76 1019.3
20260510094504 51 73 6.0 14.0 0.00 0.00 0.00 76 1019.4
20260510093004 51 28 5.0 13.0 0.00 0.00 0.00 78 1019.5
20260510091503 51 21 9.0 17.0 0.00 0.00 0.00 77 1019.5
20260510090003 51 25 4.0 15.0 0.00 0.00 0.00 77 1019.7
20260510081504 50 5 5.0 12.0 0.00 0.00 0.00 80 1019.7
20260510080005 49 27 5.0 14.0 0.00 0.00 0.00 81 1019.8
20260510074504 49 9 5.0 14.0 0.00 0.00 0.00 82 1019.9
20260510073004 48 356 3.0 12.0 0.00 0.00 0.00 83 1019.9
20260510070003 48 45 7.0 14.0 0.00 0.00 0.00 84 1019.7
20260510064503 49 334 4.0 12.0 0.00 0.00 0.00 84 1019.6
20260510063004 49 343 4.0 10.0 0.00 0.00 0.00 84 1019.4
20260510061504 49 31 5.0 10.0 0.00 0.00 0.00 85 1019.4
20260510060003 48 21 5.0 13.0 0.00 0.00 0.00 85 1019.4
20260510054504 48 22 5.0 13.0 0.00 0.00 0.00 85 1019.3
20260510051504 48 29 6.0 12.0 0.00 0.00 0.00 86 1019.4
20260510050004 48 355 4.0 14.0 0.00 0.00 0.00 87 1019.4
20260510044505 48 19 3.0 9.0 0.00 0.00 0.00 87 1019.5
20260510043004 48 23 4.0 10.0 0.00 0.00 0.00 88 1019.4
20260510040004 47 37 3.0 9.0 0.00 0.00 0.00 88 1019.4
20260510034504 48 2 4.0 9.0 0.00 0.00 0.00 88 1019.6
20260510033005 48 14 3.0 8.0 0.00 0.00 0.00 88 1019.7
20260510030004 48 14 4.0 10.0 0.00 0.00 0.00 87 1019.7
20260510024504 48 22 3.0 8.0 0.00 0.00 0.00 88 1019.8
20260510023004 48 29 3.0 12.0 0.00 0.00 0.00 88 1020.0
20260510021504 48 353 3.0 10.0 0.00 0.00 0.00 88 1020.1
20260510020004 48 28 4.0 12.0 0.00 0.00 0.00 88 1020.0
20260510014504 48 20 6.0 13.0 0.00 0.00 0.00 88 1019.8
20260510013005 48 44 3.0 9.0 0.00 0.00 0.00 87 1020.0
20260510011504 48 339 3.0 10.0 0.00 0.00 0.00 87 1019.9
20260510010004 48 21 3.0 13.0 0.00 0.00 0.00 87 1019.8
20260510004504 48 15 3.0 12.0 0.00 0.00 0.00 87 1019.7
20260510003005 48 343 3.0 12.0 0.00 0.00 0.00 87 1019.9
20260510001504 48 354 4.0 10.0 0.00 0.00 0.00 86 1020.1
20260510000004 48 352 3.0 10.0 0.00 0.00 0.00 85 1020.1
20260509234504 48 25 4.0 9.0 0.00 0.00 0.00 84 1020.0
20260509233004 48 358 3.0 7.0 0.00 0.00 0.00 81 1020.2
20260509230004 49 345 3.0 10.0 0.00 0.00 0.00 78 1020.3
20260509223004 50 14 2.0 7.0 0.00 0.00 0.00 75 1020.1
20260509221504 51 353 3.0 10.0 0.00 0.00 0.00 74 1020.0
20260509214504 52 11 2.0 8.0 0.00 0.00 0.00 65 1019.8
20260509213005 53 67 4.0 10.0 0.00 0.00 0.00 60 1019.7
20260509211504 53 326 3.0 10.0 0.00 0.00 0.00 61 1019.4
20260509210004 54 27 4.0 8.0 0.00 0.00 0.00 56 1019.1
20260509204504 56 18 3.0 8.0 0.00 0.00 0.00 51 1019.0
20260509203004 57 25 1.0 5.0 0.00 0.00 0.00 48 1018.9
20260509201504 57 28 2.0 6.0 0.00 0.00 0.00 46 1018.8
20260509200004 58 66 2.0 8.0 0.00 0.00 0.00 46 1018.6
20260509193004 60 62 2.0 10.0 0.00 0.00 0.00 47 1018.2
20260509191504 60 335 2.0 8.0 0.00 0.00 0.00 47 1018.1
20260509184503 62 29 4.0 13.0 0.00 0.00 0.00 46 1017.9
20260509183004 63 340 5.0 13.0 0.00 0.00 0.00 44 1017.6
20260509181504 64 7 5.0 10.0 0.00 0.00 0.00 44 1017.4
20260509180004 64 31 3.0 12.0 0.00 0.00 0.00 44 1017.5
20260509174504 65 327 3.0 10.0 0.00 0.00 0.00 45 1017.4